When you browse on this site, cookies collect data to enhance your experience and personalize the content and advertising you see.
Visit our Privacy Policy to learn more. By continuing to use the site, you agree to this use of cookies and data.
  • In Latvia
  • List of Countries
  • For 7 days
  • Water Temperature
  • Weather Map
  • Weather Widgets
  • user-avatar
    Login

    Hourly Weather Salzburg

    Today, 14 October, Monday

    Time Temperature Precipitation Wind Pressure Humidity
    00:00 +8°C° 0 mm 2 mps 629 mmHg 59%
    01:00 +8°C° 0 mm 2 mps 629 mmHg 58%
    02:00 +8°C° 0 mm 2 mps 629 mmHg 58%
    03:00 +8°C° 0 mm 2 mps 629 mmHg 57%
    04:00 +8°C° 0 mm 2 mps 628 mmHg 57%
    05:00 +8°C° 0 mm 2 mps 628 mmHg 58%
    06:00 +8°C° 0 mm 2 mps 628 mmHg 59%
    07:00 +8°C° 0 mm 2 mps 629 mmHg 60%
    08:00 +12°C° 0 mm 2 mps 629 mmHg 56%
    09:00 +14°C° 0 mm 1 mps 630 mmHg 53%
    10:00 +18°C° 0 mm 1 mps 630 mmHg 50%
    11:00 +19°C° 0 mm 1 mps 631 mmHg 48%
    12:00 +19°C° 0 mm 2 mps 631 mmHg 47%
    13:00 +20°C° 0 mm 2 mps 631 mmHg 44%
    14:00 +18°C° 0 mm 2 mps 630 mmHg 51%
    15:00 +17°C° 0 mm 2 mps 629 mmHg 59%
    16:00 +16°C° 0 mm 2 mps 629 mmHg 67%
    17:00 +14°C° 0 mm 2 mps 628 mmHg 70%
    18:00 +12°C° 0 mm 2 mps 628 mmHg 74%
    19:00 +9°C° 0 mm 2 mps 627 mmHg 77%
    20:00 +9°C° 0 mm 2 mps 627 mmHg 74%
    21:00 +8°C° 0 mm 2 mps 626 mmHg 71%
    22:00 +8°C° 0 mm 3 mps 626 mmHg 68%
    23:00 +7°C° 0 mm 3 mps 625 mmHg 66%

    Tomorrow, 15 October, Tuesday

    Time Temperature Precipitation Wind Pressure Humidity
    00:00 +7°C° 0 mm 2 mps 625 mmHg 63%
    01:00 +7°C° 0 mm 2 mps 625 mmHg 60%
    02:00 +6°C° 0 mm 2 mps 625 mmHg 59%
    03:00 +6°C° 0 mm 2 mps 624 mmHg 59%
    04:00 +5°C° 0 mm 2 mps 624 mmHg 58%
    05:00 +5°C° 0 mm 2 mps 623 mmHg 60%
    06:00 +4°C° 0 mm 3 mps 623 mmHg 63%
    07:00 +3°C° 0 mm 3 mps 623 mmHg 65%
    08:00 +5°C° 0 mm 3 mps 623 mmHg 63%
    09:00 +9°C° 0 mm 3 mps 624 mmHg 60%
    10:00 +11°C° 0 mm 3 mps 624 mmHg 58%
    11:00 +12°C° 0 mm 3 mps 624 mmHg 56%
    12:00 +13°C° 0 mm 3 mps 624 mmHg 55%
    13:00 +14°C° 0 mm 3 mps 625 mmHg 54%
    14:00 +13°C° 0 mm 3 mps 624 mmHg 59%
    15:00 +13°C° 0 mm 3 mps 623 mmHg 63%
    16:00 +12°C° 0 mm 3 mps 623 mmHg 68%
    17:00 +10°C° 0 mm 3 mps 623 mmHg 73%
    18:00 +9°C° 0 mm 3 mps 622 mmHg 78%
    19:00 +7°C° 0 mm 2 mps 622 mmHg 83%
    20:00 +7°C° 0 mm 2 mps 622 mmHg 85%
    21:00 +6°C° 0 mm 2 mps 623 mmHg 88%
    22:00 +6°C° 0 mm 2 mps 623 mmHg 91%
    23:00 +5°C° 1.2 mm 2 mps 624 mmHg 93%

    Day after tomorrow, 16 October, Wednesday

    Time Temperature Precipitation Wind Pressure Humidity
    00:00 +4°C° 1.2 mm 2 mps 624 mmHg 95%
    01:00 +3°C° 1.2 mm 2 mps 624 mmHg 97%
    02:00 +3°C° 1.7 mm 2 mps 624 mmHg 97%
    03:00 +3°C° 1.7 mm 1 mps 624 mmHg 97%
    04:00 +3°C° 1.7 mm 1 mps 624 mmHg 97%
    05:00 +3°C° 0 mm 1 mps 624 mmHg 96%
    06:00 +3°C° 0 mm 1 mps 624 mmHg 95%
    07:00 +3°C° 0 mm 1 mps 625 mmHg 94%
    08:00 +4°C° 0 mm 1 mps 625 mmHg 88%
    09:00 +5°C° 0 mm 0 mps 626 mmHg 82%
    10:00 +6°C° 0 mm 0 mps 627 mmHg 77%
    11:00 +8°C° 0 mm 0 mps 627 mmHg 70%
    12:00 +10°C° 0 mm 1 mps 627 mmHg 64%
    13:00 +11°C° 0 mm 1 mps 628 mmHg 58%
    14:00 +11°C° 0 mm 1 mps 627 mmHg 62%
    15:00 +10°C° 0 mm 1 mps 627 mmHg 65%
    16:00 +10°C° 0 mm 1 mps 627 mmHg 69%
    17:00 +8°C° 0 mm 1 mps 626 mmHg 75%
    18:00 +6°C° 0 mm 1 mps 626 mmHg 81%
    19:00 +5°C° 0 mm 1 mps 625 mmHg 87%
    20:00 +4°C° 0 mm 1 mps 626 mmHg 88%
    21:00 +3°C° 0 mm 2 mps 626 mmHg 89%
    22:00 +3°C° 0 mm 2 mps 626 mmHg 90%
    23:00 +3°C° 0 mm 2 mps 626 mmHg 90%

    17 October, Thursday

    Time Temperature Precipitation Wind Pressure Humidity
    00:00 +3°C° 0 mm 2 mps 626 mmHg 90%
    01:00 +3°C° 0 mm 2 mps 626 mmHg 89%
    02:00 +2°C° 0 mm 2 mps 626 mmHg 87%
    03:00 +2°C° 0 mm 2 mps 625 mmHg 86%
    04:00 +2°C° 0 mm 2 mps 625 mmHg 84%
    05:00 +3°C° 0 mm 1 mps 625 mmHg 81%
    06:00 +3°C° 0 mm 1 mps 625 mmHg 78%
    07:00 +3°C° 0 mm 1 mps 626 mmHg 75%
    08:00 +5°C° 0 mm 1 mps 626 mmHg 69%
    09:00 +8°C° 0 mm 1 mps 627 mmHg 63%
    10:00 +9°C° 0 mm 0 mps 628 mmHg 57%
    11:00 +11°C° 0 mm 1 mps 628 mmHg 57%
    12:00 +11°C° 0 mm 1 mps 628 mmHg 56%
    13:00 +12°C° 0 mm 1 mps 629 mmHg 55%
    14:00 +11°C° 0 mm 1 mps 628 mmHg 61%
    15:00 +11°C° 0 mm 1 mps 628 mmHg 66%
    16:00 +10°C° 0 mm 1 mps 628 mmHg 72%
    17:00 +8°C° 0 mm 1 mps 627 mmHg 79%
    18:00 +6°C° 0 mm 1 mps 627 mmHg 86%
    19:00 +3°C° 0 mm 0 mps 626 mmHg 94%
    20:00 +4°C° 0 mm 1 mps 627 mmHg 93%
    21:00 +4°C° 0 mm 1 mps 627 mmHg 93%
    22:00 +4°C° 0 mm 1 mps 627 mmHg 92%
    23:00 +4°C° 0 mm 1 mps 627 mmHg 91%

    18 October, Friday

    Time Temperature Precipitation Wind Pressure Humidity
    00:00 +4°C° 0 mm 1 mps 627 mmHg 89%
    01:00 +5°C° 0 mm 1 mps 627 mmHg 88%
    02:00 +4°C° 0 mm 1 mps 627 mmHg 86%
    03:00 +4°C° 0 mm 1 mps 626 mmHg 85%
    04:00 +4°C° 0 mm 1 mps 626 mmHg 84%
    05:00 +4°C° 0 mm 1 mps 626 mmHg 83%
    06:00 +4°C° 0 mm 1 mps 626 mmHg 82%
    07:00 +5°C° 0 mm 1 mps 626 mmHg 81%
    08:00 +7°C° 0 mm 1 mps 627 mmHg 74%
    09:00 +9°C° 0 mm 1 mps 628 mmHg 68%
    10:00 +10°C° 0 mm 0 mps 628 mmHg 62%
    11:00 +10°C° 0 mm 0 mps 628 mmHg 59%
    12:00 +11°C° 0 mm 0 mps 628 mmHg 56%
    13:00 +12°C° 0 mm 0 mps 628 mmHg 53%
    14:00 +12°C° 0 mm 1 mps 628 mmHg 61%
    15:00 +11°C° 0 mm 1 mps 628 mmHg 68%
    16:00 +10°C° 0 mm 1 mps 627 mmHg 75%
    17:00 +9°C° 0 mm 1 mps 627 mmHg 81%
    18:00 +8°C° 0 mm 1 mps 626 mmHg 86%
    19:00 +6°C° 0 mm 0 mps 626 mmHg 91%
    20:00 +5°C° 0 mm 0 mps 626 mmHg 91%
    21:00 +5°C° 0 mm 0 mps 626 mmHg 91%
    22:00 +5°C° 0 mm 0 mps 626 mmHg 91%
    23:00 +5°C° 0 mm 0 mps 626 mmHg 91%

    19 October, Saturday

    Time Temperature Precipitation Wind Pressure Humidity
    00:00 +5°C° 0 mm 0 mps 626 mmHg 92%
    01:00 +4°C° 0 mm 0 mps 626 mmHg 93%
    02:00 +4°C° 0.1 mm 0 mps 626 mmHg 93%
    03:00 +5°C° 0.1 mm 0 mps 626 mmHg 93%
    04:00 +5°C° 0.1 mm 0 mps 626 mmHg 93%
    05:00 +5°C° 0 mm 1 mps 626 mmHg 93%
    06:00 +5°C° 0 mm 1 mps 626 mmHg 93%
    07:00 +5°C° 0 mm 1 mps 626 mmHg 93%
    08:00 +7°C° 0 mm 1 mps 627 mmHg 86%
    09:00 +9°C° 0 mm 1 mps 627 mmHg 80%
    10:00 +10°C° 0 mm 0 mps 628 mmHg 73%
    11:00 +12°C° 0 mm 1 mps 628 mmHg 67%
    12:00 +13°C° 0 mm 1 mps 628 mmHg 62%
    13:00 +14°C° 0 mm 1 mps 628 mmHg 56%
    14:00 +13°C° 0 mm 1 mps 627 mmHg 62%
    15:00 +12°C° 0 mm 1 mps 626 mmHg 67%
    16:00 +11°C° 0 mm 1 mps 626 mmHg 72%
    17:00 +9°C° 0 mm 2 mps 625 mmHg 78%
    18:00 +7°C° 0 mm 2 mps 624 mmHg 83%
    19:00 +4°C° 0 mm 3 mps 624 mmHg 89%
    20:00 +4°C° 0 mm 3 mps 623 mmHg 88%
    21:00 +4°C° 0 mm 3 mps 623 mmHg 87%
    22:00 +3°C° 0 mm 3 mps 623 mmHg 86%
    23:00 +3°C° 0 mm 3 mps 623 mmHg 85%
    Show more